Weather History for KSUE - October, 2012

Change the Weather History Date:

Monday, October 29, 2012

  Actual Average Record
Temperature  
Mean Temperature 40 °F -  
Max Temperature 44 °F 50 °F 72 °F (1937)
Min Temperature 35 °F 33 °F 14 °F (1905)
Degree Days  
Heating Degree Days 26    
Moisture  
Dew Point 28 °F    
Average Humidity 62    
Maximum Humidity 87    
Minimum Humidity 42    
Precipitation  
Precipitation 0.00 in - - ()
Sea Level Pressure  
Sea Level Pressure 30.28 in    
Wind  
Wind Speed 12 mph (NNE)    
Max Wind Speed 25 mph    
Max Gust Speed 34 mph    
Visibility 10 miles    
Events      
Averages and records for this station are not official NWS values.
T = Trace of Precipitation, MM = Missing Value Source: NWS Daily Summary

Daily Weather History Graph

Daily Weather History Graph

Search for Another Location

Airport or City:

Trip Planner

Search our weather history database for the weather conditions in past years. The results will help you decide how hot, cold, wet, or windy it might be!

Date:

Astronomy

Oct. 29, 2012 Rise Set
Actual Time 7:24 AM CDT 5:41 PM CDT
Civil Twilight 6:54 AM CDT 6:11 PM CDT
Nautical Twilight 6:19 AM CDT 6:46 PM CDT
Astronomical Twilight 5:45 AM CDT 7:20 PM CDT
Moon 5:31 PM CDT (10/29) 7:15 AM CDT (10/29)
Length of Visible Light 11h 17m
Length of Day
10h 17m
Full, 100% of the Moon is Illuminated
Oct 29
Full
Oct 29
Full
Nov 6
Last Quarter
Nov 13
New
Nov 20
First Quarter

Hourly Weather History & Observations

Time (CDT) Temp. Windchill Dew Point Humidity Pressure Visibility Wind Dir Wind Speed Gust Speed Precip Events Conditions
12:15 AM 37.4 °F 31.4 °F 26.6 °F 65% 30.33 in 10.0 mi NNE 8.1 mph - N/A   Clear
12:35 AM 37.4 °F 30.8 °F 24.8 °F 60% 30.33 in 10.0 mi NNE 9.2 mph - N/A   Clear
12:55 AM 35.6 °F 29.2 °F 24.8 °F 65% 30.33 in 10.0 mi North 8.1 mph - N/A   Clear
1:15 AM 35.6 °F 29.2 °F 24.8 °F 65% 30.33 in 10.0 mi NNE 8.1 mph - N/A   Clear
1:35 AM 37.4 °F 30.8 °F 24.8 °F 60% 30.32 in 10.0 mi NNE 9.2 mph - N/A   Clear
1:55 AM 37.4 °F 31.4 °F 24.8 °F 60% 30.32 in 10.0 mi NNE 8.1 mph - N/A   Clear
2:15 AM 37.4 °F 31.4 °F 26.6 °F 65% 30.32 in 10.0 mi NNE 8.1 mph - N/A   Clear
2:35 AM 35.6 °F 29.2 °F 26.6 °F 70% 30.32 in 10.0 mi NNE 8.1 mph - N/A   Clear
2:55 AM 35.6 °F 30.7 °F 26.6 °F 70% 30.32 in 10.0 mi NE 5.8 mph - N/A   Clear
3:15 AM 37.4 °F 32.8 °F 28.4 °F 70% 30.32 in 10.0 mi NE 5.8 mph - N/A   Clear
3:35 AM 35.6 °F 29.9 °F 26.6 °F 70% 30.32 in 10.0 mi NNE 6.9 mph - N/A   Clear
4:15 AM 35.6 °F 29.9 °F 26.6 °F 70% 30.32 in 10.0 mi North 6.9 mph - N/A   Clear
4:35 AM 35.6 °F 29.2 °F 26.6 °F 70% 30.32 in 10.0 mi North 8.1 mph - N/A   Clear
4:55 AM 37.4 °F 30.8 °F 28.4 °F 70% 30.32 in 10.0 mi North 9.2 mph - N/A   Clear
5:55 AM 37.4 °F 31.4 °F 30.2 °F 75% 30.33 in 10.0 mi NNE 8.1 mph - N/A   Scattered Clouds
6:15 AM 37.4 °F 32.8 °F 30.2 °F 75% 30.33 in 10.0 mi North 5.8 mph - N/A   Mostly Cloudy
6:35 AM 37.4 °F 30.8 °F 33.8 °F 87% 30.33 in 10.0 mi North 9.2 mph - N/A   Mostly Cloudy
6:55 AM 39.2 °F 32.5 °F 32.0 °F 75% 30.33 in 10.0 mi North 10.4 mph - N/A   Scattered Clouds
7:15 AM 37.4 °F 30.3 °F 33.8 °F 87% 30.34 in 10.0 mi North 10.4 mph - N/A   Scattered Clouds
7:35 AM 37.4 °F 31.4 °F 33.8 °F 87% 30.34 in 10.0 mi NNE 8.1 mph - N/A   Mostly Cloudy
7:55 AM 39.2 °F 32.5 °F 33.8 °F 81% 30.34 in 10.0 mi North 10.4 mph - N/A   Partly Cloudy
8:15 AM 39.2 °F 31.6 °F 33.8 °F 81% 30.34 in 10.0 mi North 12.7 mph - N/A   Clear
8:35 AM 41.0 °F 33.9 °F 33.8 °F 76% 30.34 in 10.0 mi North 12.7 mph - N/A   Clear
8:55 AM 42.8 °F 36.6 °F 33.8 °F 70% 30.34 in 10.0 mi NNE 11.5 mph - N/A   Scattered Clouds
9:35 AM 42.8 °F 35.4 °F 33.8 °F 70% 30.33 in 10.0 mi North 15.0 mph 20.7 mph N/A   Mostly Cloudy
9:55 AM 42.8 °F 35.8 °F 33.8 °F 70% 30.34 in 10.0 mi North 13.8 mph - N/A   Partly Cloudy
10:15 AM 42.8 °F 35.8 °F 32.0 °F 66% 30.33 in 10.0 mi North 13.8 mph - N/A   Partly Cloudy
10:35 AM 42.8 °F 35.4 °F 33.8 °F 70% 30.33 in 10.0 mi North 15.0 mph - N/A   Clear
10:55 AM 42.8 °F 35.1 °F 32.0 °F 66% 30.33 in 10.0 mi North 16.1 mph - N/A   Partly Cloudy
11:15 AM 42.8 °F 34.8 °F 32.0 °F 66% 30.33 in 10.0 mi North 17.3 mph 21.9 mph N/A   Partly Cloudy
11:35 AM 42.8 °F 34.8 °F 30.2 °F 61% 30.32 in 10.0 mi North 17.3 mph - N/A   Partly Cloudy
11:55 AM 42.8 °F 34.3 °F 30.2 °F 61% 30.32 in 10.0 mi North 19.6 mph 25.3 mph N/A   Partly Cloudy
12:35 PM 42.8 °F 35.8 °F 30.2 °F 61% 30.31 in 10.0 mi North 13.8 mph - N/A   Partly Cloudy
12:55 PM 44.6 °F 37.4 °F 28.4 °F 53% 30.30 in 10.0 mi NNE 16.1 mph 23.0 mph N/A   Partly Cloudy
1:15 PM 44.6 °F 37.2 °F 30.2 °F 57% 30.30 in 10.0 mi North 17.3 mph 24.2 mph N/A   Partly Cloudy
1:35 PM 44.6 °F 36.9 °F 28.4 °F 53% 30.29 in 10.0 mi North 18.4 mph - N/A   Clear
1:55 PM 44.6 °F 36.6 °F 28.4 °F 53% 30.29 in 10.0 mi North 19.6 mph 28.8 mph N/A   Clear
2:15 PM 44.6 °F 38.1 °F 28.4 °F 53% 30.28 in 10.0 mi North 13.8 mph 25.3 mph N/A   Clear
2:35 PM 44.6 °F 37.4 °F 30.2 °F 57% 30.28 in 10.0 mi North 16.1 mph - N/A   Clear
3:35 PM 44.6 °F 37.2 °F 30.2 °F 57% 30.27 in 10.0 mi North 17.3 mph 21.9 mph N/A   Clear
3:55 PM 44.6 °F 37.8 °F 28.4 °F 53% 30.26 in 10.0 mi North 15.0 mph 23.0 mph N/A   Clear
4:15 PM 44.6 °F 37.4 °F 28.4 °F 53% 30.26 in 10.0 mi North 16.1 mph - N/A   Clear
4:35 PM 44.6 °F 37.4 °F 26.6 °F 49% 30.26 in 10.0 mi North 16.1 mph 19.6 mph N/A   Clear
4:55 PM 44.6 °F 37.8 °F 26.6 °F 49% 30.25 in 10.0 mi NNE 15.0 mph 23.0 mph N/A   Clear
5:15 PM 44.6 °F 37.8 °F 26.6 °F 49% 30.25 in 10.0 mi North 15.0 mph 23.0 mph N/A   Clear
5:35 PM 44.6 °F 38.8 °F 24.8 °F 46% 30.24 in 10.0 mi NNE 11.5 mph 23.0 mph N/A   Clear
5:55 PM 42.8 °F 34.8 °F 26.6 °F 53% 30.23 in 10.0 mi North 17.3 mph 25.3 mph N/A   Clear
6:15 PM 42.8 °F 35.1 °F 24.8 °F 49% 30.24 in 10.0 mi North 16.1 mph 25.3 mph N/A   Partly Cloudy
6:35 PM 42.8 °F 34.0 °F 26.6 °F 53% 30.24 in 10.0 mi NNE 20.7 mph 25.3 mph N/A   Partly Cloudy
6:55 PM 42.8 °F 33.8 °F 21.2 °F 42% 30.24 in 10.0 mi North 21.9 mph 29.9 mph N/A   Clear
7:15 PM 42.8 °F 34.5 °F 21.2 °F 42% 30.23 in 10.0 mi North 18.4 mph 28.8 mph N/A   Clear
7:35 PM 42.8 °F 34.3 °F 23.0 °F 46% 30.23 in 10.0 mi North 19.6 mph 29.9 mph N/A   Clear
7:55 PM 42.8 °F 33.1 °F 24.8 °F 49% 30.22 in 10.0 mi North 25.3 mph 31.1 mph N/A   Clear
8:15 PM 41.0 °F 32.2 °F 24.8 °F 53% 30.22 in 10.0 mi North 18.4 mph 29.9 mph N/A   Clear
8:35 PM 41.0 °F 31.4 °F 24.8 °F 53% 30.22 in 10.0 mi North 21.9 mph 31.1 mph N/A   Clear
8:55 PM 41.0 °F 31.4 °F 24.8 °F 53% 30.21 in 10.0 mi North 21.9 mph 29.9 mph N/A   Clear
9:15 PM 41.0 °F 31.4 °F 26.6 °F 57% 30.20 in 10.0 mi North 21.9 mph 29.9 mph N/A   Clear
9:35 PM 41.0 °F 31.4 °F 26.6 °F 57% 30.19 in 10.0 mi North 21.9 mph 34.5 mph N/A   Clear
9:55 PM 41.0 °F 30.7 °F 26.6 °F 57% 30.18 in 10.0 mi North 25.3 mph 31.1 mph N/A   Clear
10:15 PM 39.2 °F 29.0 °F 28.4 °F 65% 30.17 in 10.0 mi North 21.9 mph 32.2 mph N/A   Partly Cloudy
10:35 PM 39.2 °F 29.3 °F 28.4 °F 65% 30.16 in 10.0 mi North 20.7 mph 28.8 mph N/A   Partly Cloudy
10:55 PM 41.0 °F 30.7 °F 28.4 °F 61% 30.15 in 10.0 mi North 25.3 mph 33.4 mph N/A   Scattered Clouds
11:15 PM 39.2 °F 28.7 °F 28.4 °F 65% 30.14 in 10.0 mi North 23.0 mph 32.2 mph N/A   Scattered Clouds
11:35 PM 39.2 °F 28.5 °F 28.4 °F 65% 30.13 in 10.0 mi North 24.2 mph 33.4 mph N/A   Mostly Cloudy
11:55 PM 39.2 °F 28.7 °F 30.2 °F 70% 30.12 in 10.0 mi North 23.0 mph 33.4 mph N/A   Mostly Cloudy